DW0275 Weather Reports


time (UTC)temp
C
wind
direction
speed
KPH
gust
KPH
rain 1hr
cm
rain 24hr
cm
rain mn
cm
humidity
%
barometer
mb
20260508132842 28 338 6.4 9.7 0.00 0.00 0.00 76 1016.8
20260508132331 27 316 4.8 9.7 0.00 0.00 0.00 76 1016.8
20260508131830 27 337 3.2 8.0 0.00 0.00 0.00 77 1016.7
20260508131328 27 299 1.6 9.7 0.00 0.00 0.00 77 1016.7
20260508130848 27 326 4.8 9.7 0.00 0.00 0.00 77 1016.7
20260508130357 26 345 3.2 8.0 0.00 0.00 0.00 77 1016.5
20260508125836 26 8 3.2 9.7 0.00 0.00 0.00 77 1016.5
20260508125327 26 347 1.6 11.3 0.00 0.00 0.00 77 1016.4
20260508124822 26 338 4.8 11.3 0.00 0.00 0.00 77 1016.5
20260508124323 26 358 4.8 8.0 0.00 0.00 0.00 77 1016.5
20260508123845 26 341 1.6 8.0 0.00 0.00 0.00 77 1016.5
20260508123358 25 337 1.6 8.0 0.00 0.00 0.00 78 1016.5
20260508122847 25 352 1.6 6.4 0.00 0.00 0.00 77 1016.5
20260508122400 25 25 0.0 3.2 0.00 0.00 0.00 78 1016.5
20260508121844 25 25 1.6 4.8 0.00 0.00 0.00 78 1016.5
20260508121336 25 323 0.0 4.8 0.00 0.00 0.00 78 1016.4
20260508120838 25 353 1.6 4.8 0.00 0.00 0.00 78 1016.4
20260508120328 24 4 1.6 6.4 0.00 0.00 0.00 78 1016.3
20260508115827 24 350 3.2 6.4 0.00 0.00 0.00 79 1016.2
20260508115341 23 14 1.6 4.8 0.00 0.00 0.00 79 1016.1
20260508114906 23 354 1.6 3.2 0.00 0.00 0.00 79 1016.0
20260508114331 23 356 0.0 3.2 0.00 0.00 0.00 79 1016.0
20260508113824 23 12 1.6 3.2 0.00 0.00 0.00 80 1016.0
20260508113348 23 1 0.0 3.2 0.00 0.00 0.00 80 1015.9
20260508112821 22 349 0.0 0.0 0.00 0.00 0.00 81 1016.0
20260508112334 22 349 0.0 1.6 0.00 0.00 0.00 82 1015.9
20260508111851 22 21 0.0 1.6 0.00 0.00 0.00 82 1015.9
20260508111344 22 22 0.0 0.0 0.00 0.00 0.00 83 1015.7
20260508110844 22 22 0.0 0.0 0.00 0.00 0.00 83 1015.6
20260508110337 21 22 0.0 0.0 0.00 0.00 0.00 83 1015.5
20260508105822 21 22 0.0 0.0 0.00 0.00 0.00 83 1015.4
20260508105333 21 22 0.0 0.0 0.00 0.00 0.00 83 1015.3
20260508104827 21 22 0.0 1.6 0.00 0.00 0.00 83 1015.1
20260508104350 22 22 0.0 1.6 0.00 0.00 0.00 83 1015.1
20260508103832 21 355 0.0 1.6 0.00 0.00 0.00 83 1015.1
20260508103344 21 334 0.0 1.6 0.00 0.00 0.00 83 1015.0
20260508102831 21 165 0.0 1.6 0.00 0.00 0.00 84 1014.9
20260508102325 21 200 0.0 0.0 0.00 0.00 0.00 84 1014.9
20260508101837 21 200 0.0 0.0 0.00 0.00 0.00 84 1014.9
20260508101342 21 200 0.0 0.0 0.00 0.00 0.00 84 1014.8
20260508100829 21 200 0.0 0.0 0.00 0.00 0.00 84 1014.8
20260508100339 21 200 0.0 0.0 0.00 0.00 0.00 84 1014.7
20260508095842 21 200 0.0 0.0 0.00 0.00 0.00 84 1014.7
20260508095408 21 200 0.0 0.0 0.00 0.00 0.00 84 1014.6
20260508094858 21 200 0.0 0.0 0.00 0.00 0.00 84 1014.6
20260508094337 21 200 0.0 0.0 0.00 0.00 0.00 84 1014.5
20260508093829 21 200 0.0 0.0 0.00 0.00 0.00 84 1014.5
20260508093325 21 200 0.0 0.0 0.00 0.00 0.00 84 1014.6
20260508092846 21 200 0.0 0.0 0.00 0.00 0.00 84 1014.6
20260508092340 21 200 0.0 0.0 0.00 0.00 0.00 84 1014.6
20260508091825 21 200 0.0 0.0 0.00 0.00 0.00 84 1014.5
20260508091335 21 200 0.0 0.0 0.00 0.00 0.00 85 1014.6
20260508090828 21 200 0.0 0.0 0.00 0.00 0.00 85 1014.6
20260508090343 21 200 0.0 0.0 0.00 0.00 0.00 85 1014.5
20260508085856 21 200 0.0 0.0 0.00 0.00 0.00 85 1014.7
20260508085326 22 200 0.0 0.0 0.00 0.00 0.00 85 1014.6
20260508084834 22 200 0.0 0.0 0.00 0.00 0.00 85 1014.6
20260508084327 22 200 0.0 0.0 0.00 0.00 0.00 85 1014.5
20260508083849 22 200 0.0 0.0 0.00 0.00 0.00 85 1014.5
20260508083333 22 200 0.0 0.0 0.00 0.00 0.00 85 1014.5
20260508082845 22 200 0.0 0.0 0.00 0.00 0.00 85 1014.5
20260508082355 22 200 0.0 0.0 0.00 0.00 0.00 85 1014.5
20260508081844 22 200 0.0 0.0 0.00 0.00 0.00 85 1014.3
20260508081355 22 200 0.0 0.0 0.00 0.00 0.00 85 1014.5
20260508080846 22 200 0.0 0.0 0.00 0.00 0.00 85 1014.5
20260508080355 22 200 0.0 0.0 0.00 0.00 0.00 85 1014.6
20260508075848 22 200 0.0 0.0 0.00 0.00 0.00 85 1014.5
20260508075328 22 200 0.0 0.0 0.00 0.00 0.00 85 1014.5
20260508074840 22 200 0.0 0.0 0.00 0.00 0.00 85 1014.5
20260508074332 22 200 0.0 0.0 0.00 0.00 0.00 85 1014.5
20260508073823 22 200 0.0 0.0 0.00 0.00 0.00 85 1014.5
20260508073333 22 200 0.0 0.0 0.00 0.00 0.00 86 1014.5
20260508072908 22 200 0.0 0.0 0.00 0.00 0.00 86 1014.5
20260508072343 22 200 0.0 0.0 0.00 0.00 0.00 86 1014.5
20260508071827 23 200 0.0 0.0 0.00 0.00 0.00 86 1014.4
20260508071334 23 200 0.0 0.0 0.00 0.00 0.00 87 1014.5
20260508070826 23 200 0.0 0.0 0.00 0.00 0.00 88 1014.5
20260508070346 23 200 0.0 0.0 0.00 0.00 0.00 88 1014.6
20260508065840 23 200 0.0 0.0 0.00 0.00 0.00 88 1014.7
20260508065334 23 200 0.0 0.0 0.00 0.00 0.00 88 1014.6
20260508064826 23 200 0.0 0.0 0.00 0.00 0.00 88 1014.5
20260508064335 23 200 0.0 0.0 0.00 0.00 0.00 87 1014.6
20260508063826 23 200 0.0 0.0 0.00 0.00 0.00 87 1014.7
20260508063324 23 200 0.0 0.0 0.00 0.00 0.00 87 1014.8
20260508062824 23 200 0.0 0.0 0.00 0.00 0.00 87 1014.8
20260508062335 23 154 0.0 0.0 0.00 0.00 0.00 87 1014.9
20260508061834 23 154 0.0 0.0 0.00 0.00 0.00 87 1015.0
20260508061329 23 154 0.0 0.0 0.00 0.00 0.00 87 1015.0
20260508060823 23 154 0.0 0.0 0.00 0.00 0.00 87 1015.1
20260508060338 23 154 0.0 0.0 0.00 0.00 0.00 87 1015.1
20260508055831 23 154 0.0 0.0 0.00 0.00 0.00 87 1015.0
20260508055342 23 154 0.0 0.0 0.00 0.00 0.00 86 1015.1
20260508054829 23 154 0.0 0.0 0.00 0.00 0.00 86 1015.0
20260508054321 23 154 0.0 0.0 0.00 0.00 0.00 86 1015.1
20260508053906 23 154 0.0 0.0 0.00 0.00 0.00 86 1015.1
20260508053336 23 154 0.0 0.0 0.00 0.00 0.00 85 1015.2
20260508052821 24 155 0.0 0.0 0.00 0.00 0.00 85 1015.2
20260508052330 24 155 0.0 0.0 0.00 0.00 0.00 85 1015.3
20260508051820 24 155 0.0 0.0 0.00 0.00 0.00 84 1015.3
20260508051341 24 155 0.0 0.0 0.00 0.00 0.00 84 1015.2
20260508050854 24 155 0.0 0.0 0.00 0.00 0.00 84 1015.4
20260508050340 25 155 0.0 0.0 0.00 0.00 0.00 84 1015.4
20260508045831 25 155 0.0 0.0 0.00 0.00 0.00 83 1015.4
20260508045323 25 155 0.0 0.0 0.00 0.00 0.00 82 1015.3
20260508044834 25 155 0.0 0.0 0.00 0.00 0.00 82 1015.2
20260508044324 25 155 0.0 0.0 0.00 0.00 0.00 81 1015.2
20260508043832 25 155 0.0 0.0 0.00 0.00 0.00 81 1015.2
20260508043343 25 155 0.0 1.6 0.00 0.00 0.00 81 1015.3
20260508042909 26 155 0.0 1.6 0.00 0.00 0.00 81 1015.3
20260508042332 26 141 0.0 1.6 0.00 0.00 0.00 81 1015.4
20260508041837 26 141 0.0 1.6 0.00 0.00 0.00 81 1015.3
20260508041346 26 141 0.0 3.2 0.00 0.00 0.00 80 1015.3
20260508040913 26 140 0.0 3.2 0.00 0.00 0.00 80 1015.3
20260508040320 26 133 0.0 3.2 0.00 0.00 0.00 80 1015.3
20260508035836 26 143 1.6 3.2 0.00 0.00 0.00 80 1015.3
20260508035341 26 151 0.0 3.2 0.00 0.00 0.00 80 1015.4
20260508034831 26 154 0.0 1.6 0.00 0.00 0.00 80 1015.5
20260508034407 26 155 0.0 3.2 0.00 0.00 0.00 80 1015.5
20260508033820 26 158 1.6 4.8 0.00 0.00 0.00 80 1015.6
20260508033344 26 171 0.0 4.8 0.00 0.00 0.00 80 1015.5
20260508032857 26 149 1.6 6.4 0.00 0.00 0.00 79 1015.5
20260508032325 26 136 1.6 6.4 0.00 0.00 0.00 79 1015.4
20260508031848 26 149 1.6 4.8 0.00 0.00 0.00 79 1015.3
20260508031337 26 141 1.6 4.8 0.00 0.00 0.00 79 1015.4
20260508030829 26 148 0.0 4.8 0.00 0.00 0.00 78 1015.4
20260508030342 26 131 1.6 4.8 0.00 0.00 0.00 78 1015.3
20260508025823 26 134 1.6 4.8 0.00 0.00 0.00 78 1015.3
20260508025349 26 136 1.6 4.8 0.00 0.00 0.00 78 1015.2
20260508024820 27 136 1.6 6.4 0.00 0.00 0.00 78 1015.3
20260508024342 27 136 3.2 8.0 0.00 0.00 0.00 78 1015.3
20260508023836 27 143 1.6 8.0 0.00 0.00 0.00 78 1015.3
20260508023335 27 138 3.2 8.0 0.00 0.00 0.00 78 1015.4
20260508022827 27 153 3.2 8.0 0.00 0.00 0.00 77 1015.3
20260508022347 27 130 3.2 8.0 0.00 0.00 0.00 77 1015.2
20260508021831 27 134 3.2 6.4 0.00 0.00 0.00 77 1015.3
20260508021322 27 146 3.2 9.7 0.00 0.00 0.00 77 1015.3
20260508020834 27 115 1.6 9.7 0.00 0.00 0.00 77 1015.3
20260508020328 27 139 3.2 8.0 0.00 0.00 0.00 77 1015.2
20260508015821 27 142 1.6 8.0 0.00 0.00 0.00 77 1015.2
20260508015324 27 150 3.2 8.0 0.00 0.00 0.00 76 1015.2
20260508014846 27 114 3.2 8.0 0.00 0.00 0.00 76 1015.2
20260508014321 27 145 1.6 6.4 0.00 0.00 0.00 76 1015.1
20260508013828 27 129 3.2 6.4 0.00 0.00 0.00 76 1015.2
20260508013351 27 124 3.2 6.4 0.00 0.00 0.00 75 1015.2
20260508012820 27 131 3.2 6.4 0.00 0.00 0.00 75 1015.2
20260508012342 27 144 1.6 6.4 0.00 0.00 0.00 74 1015.3
20260508011837 27 136 3.2 8.0 0.00 0.00 0.00 74 1015.3
20260508011348 27 159 3.2 8.0 0.00 0.00 0.00 74 1015.2
20260508010833 27 124 4.8 8.0 0.00 0.00 0.00 74 1015.2
20260508010347 27 123 4.8 8.0 0.00 0.00 0.00 74 1015.2
20260508005831 27 117 1.6 6.4 0.00 0.00 0.00 73 1015.2
20260508005322 27 139 1.6 6.4 0.00 0.00 0.00 73 1015.2
20260508004832 27 124 1.6 8.0 0.00 0.00 0.00 72 1015.2
20260508004344 27 152 3.2 8.0 0.00 0.00 0.00 72 1015.2
20260508003857 28 148 3.2 8.0 0.00 0.00 0.00 72 1015.2
20260508003329 28 139 3.2 8.0 0.00 0.00 0.00 71 1015.3
20260508002842 28 131 4.8 8.0 0.00 0.00 0.00 72 1015.2
20260508002324 28 155 1.6 9.7 0.00 0.00 0.00 72 1015.1
20260508001829 28 124 4.8 8.0 0.00 0.00 0.00 71 1015.0
20260508001320 28 123 4.8 8.0 0.00 0.00 0.00 71 1015.0
20260508000850 28 139 1.6 6.4 0.00 0.00 0.00 71 1015.0
20260508000322 28 134 3.2 12.9 0.00 0.00 0.00 70 1015.0
20260507235831 28 150 4.8 12.9 0.00 0.00 0.00 70 1014.8
20260507235324 28 127 8.0 12.9 0.00 0.00 0.00 70 1014.8
20260507234839 28 133 8.0 11.3 0.00 0.00 0.00 69 1014.7
20260507234345 28 129 4.8 11.3 0.00 0.00 0.00 70 1014.7
20260507233839 28 136 3.2 11.3 0.00 0.00 0.00 68 1014.6
20260507233328 28 119 3.2 9.7 0.00 0.00 0.00 69 1014.5
20260507232822 28 98 4.8 12.9 0.00 0.00 0.00 69 1014.3
20260507232345 28 126 8.0 14.5 0.00 0.00 0.00 69 1014.4
20260507231828 28 146 8.0 16.1 0.00 0.00 0.00 69 1014.2
20260507231343 29 138 11.3 16.1 0.00 0.00 0.00 68 1014.2
20260507230832 29 127 4.8 14.5 0.00 0.00 0.00 70 1014.2
20260507230335 29 135 9.7 14.5 0.00 0.00 0.00 69 1014.2
20260507225826 30 124 11.3 14.5 0.00 0.00 0.00 69 1014.2
20260507225347 30 140 6.4 12.9 0.00 0.00 0.00 68 1014.2
20260507224837 30 161 6.4 17.7 0.00 0.00 0.00 69 1014.2
20260507224320 30 105 8.0 14.5 0.00 0.00 0.00 68 1014.1
20260507223829 30 122 8.0 16.1 0.00 0.00 0.00 68 1014.1
20260507223321 30 163 9.7 16.1 0.00 0.00 0.00 67 1014.1
20260507222843 30 123 9.7 14.5 0.00 0.00 0.00 67 1014.0
20260507222336 30 96 6.4 14.5 0.00 0.00 0.00 66 1014.0
20260507221902 30 116 9.7 16.1 0.00 0.00 0.00 66 1014.0
20260507221322 30 146 8.0 16.1 0.00 0.00 0.00 66 1014.0
20260507220824 30 133 8.0 17.7 0.00 0.00 0.00 67 1014.0
20260507220347 30 138 8.0 17.7 0.00 0.00 0.00 66 1014.0
20260507215841 30 109 9.7 14.5 0.00 0.00 0.00 66 1014.1
20260507215335 31 120 6.4 14.5 0.00 0.00 0.00 65 1014.1
20260507214827 31 58 6.4 12.9 0.00 0.00 0.00 66 1014.1
20260507214342 31 160 4.8 16.1 0.00 0.00 0.00 66 1014.1
20260507213834 31 138 8.0 16.1 0.00 0.00 0.00 66 1013.9
20260507213328 31 134 6.4 16.1 0.00 0.00 0.00 66 1013.9
20260507212820 31 137 11.3 17.7 0.00 0.00 0.00 66 1013.9
20260507212330 31 133 8.0 17.7 0.00 0.00 0.00 67 1014.1
20260507211821 31 127 8.0 14.5 0.00 0.00 0.00 67 1014.0
20260507211335 31 131 8.0 16.1 0.00 0.00 0.00 67 1014.0
20260507210828 31 123 9.7 16.1 0.00 0.00 0.00 68 1014.0
20260507210342 31 121 11.3 16.1 0.00 0.00 0.00 68 1014.0
20260507205853 31 117 9.7 16.1 0.00 0.00 0.00 68 1013.9
20260507205322 31 150 11.3 19.3 0.00 0.00 0.00 68 1014.0
20260507204845 31 120 9.7 19.3 0.00 0.00 0.00 69 1014.0
20260507204342 31 136 8.0 12.9 0.00 0.00 0.00 67 1013.9
20260507203825 31 139 6.4 14.5 0.00 0.00 0.00 66 1014.0
20260507203334 32 141 8.0 16.1 0.00 0.00 0.00 67 1013.9
20260507202825 32 121 9.7 14.5 0.00 0.00 0.00 67 1014.0
20260507202324 32 148 8.0 12.9 0.00 0.00 0.00 67 1014.1
20260507201835 32 134 4.8 9.7 0.00 0.00 0.00 66 1014.1
20260507201347 32 125 3.2 9.7 0.00 0.00 0.00 65 1014.1
20260507200830 32 125 4.8 9.7 0.00 0.00 0.00 66 1014.2
20260507200322 32 45 4.8 9.7 0.00 0.00 0.00 63 1014.3
20260507195843 33 4 3.2 6.4 0.00 0.00 0.00 62 1014.4
20260507195337 33 122 3.2 6.4 0.00 0.00 0.00 55 1014.5
20260507194904 34 108 0.0 0.0 0.00 0.00 0.00 54 1014.6
20260507194352 33 120 0.0 4.8 0.00 0.00 0.00 56 1014.6
20260507193824 33 142 0.0 4.8 0.00 0.00 0.00 54 1014.7
20260507193338 33 109 0.0 6.4 0.00 0.00 0.00 56 1014.9
20260507192904 33 55 0.0 6.4 0.00 0.00 0.00 56 1014.8
20260507192337 34 98 0.0 3.2 0.00 0.00 0.00 55 1014.9
20260507191821 33 272 0.0 9.7 0.00 0.00 0.00 56 1015.1
20260507191328 33 23 0.0 9.7 0.00 0.00 0.00 56 1015.1
20260507190820 34 181 4.8 8.0 0.00 0.00 0.00 50 1015.3
20260507190320 34 323 0.0 8.0 0.00 0.00 0.00 53 1015.3
20260507185830 34 139 3.2 8.0 0.00 0.00 0.00 52 1015.4
20260507185324 33 319 1.6 8.0 0.00 0.00 0.00 49 1015.5
20260507184834 34 139 1.6 8.0 0.00 0.00 0.00 50 1015.6
20260507184327 34 295 1.6 4.8 0.00 0.00 0.00 54 1015.6
20260507183819 33 118 0.0 6.4 0.00 0.00 0.00 59 1015.8
20260507183319 33 138 3.2 8.0 0.00 0.00 0.00 56 1015.8
20260507182833 33 179 1.6 4.8 0.00 0.00 0.00 57 1015.8
20260507182327 33 31 1.6 4.8 0.00 0.00 0.00 58 1015.8
20260507181828 33 133 0.0 6.4 0.00 0.00 0.00 58 1015.8
20260507181343 33 127 1.6 8.0 0.00 0.00 0.00 57 1016.0
20260507180844 33 150 3.2 6.4 0.00 0.00 0.00 58 1016.1
20260507180334 33 318 0.0 6.4 0.00 0.00 0.00 62 1016.3
20260507175819 33 253 1.6 6.4 0.00 0.00 0.00 61 1016.3
20260507175328 32 325 0.0 3.2 0.00 0.00 0.00 62 1016.3
20260507174842 32 319 0.0 8.0 0.00 0.00 0.00 61 1016.4
20260507174334 32 133 3.2 8.0 0.00 0.00 0.00 58 1016.3
20260507173840 33 138 0.0 11.3 0.00 0.00 0.00 61 1016.4
20260507173321 33 162 3.2 11.3 0.00 0.00 0.00 57 1016.5
20260507172829 33 133 0.0 6.4 0.00 0.00 0.00 65 1016.5
20260507172342 32 117 0.0 6.4 0.00 0.00 0.00 60 1016.5
20260507171827 32 273 0.0 8.0 0.00 0.00 0.00 63 1016.6
20260507171321 32 126 4.8 8.0 0.00 0.00 0.00 61 1016.6
20260507170830 32 46 0.0 4.8 0.00 0.00 0.00 60 1016.6
20260507170324 32 298 1.6 6.4 0.00 0.00 0.00 60 1016.8
20260507165825 32 124 1.6 6.4 0.00 0.00 0.00 59 1016.7
20260507165328 32 121 1.6 4.8 0.00 0.00 0.00 61 1016.8
20260507164841 32 294 0.0 8.0 0.00 0.00 0.00 59 1016.9
20260507164354 32 156 4.8 8.0 0.00 0.00 0.00 58 1016.9
20260507163842 32 66 0.0 6.4 0.00 0.00 0.00 60 1017.0
20260507163341 32 153 1.6 8.0 0.00 0.00 0.00 59 1017.1
20260507162839 32 243 3.2 8.0 0.00 0.00 0.00 59 1017.1
20260507162334 32 155 0.0 8.0 0.00 0.00 0.00 63 1017.1
20260507161835 32 119 3.2 8.0 0.00 0.00 0.00 60 1017.2
20260507161328 32 301 1.6 4.8 0.00 0.00 0.00 61 1017.2
20260507160820 32 148 1.6 4.8 0.00 0.00 0.00 65 1017.2
20260507160332 32 212 1.6 4.8 0.00 0.00 0.00 65 1017.3
20260507155843 32 253 0.0 4.8 0.00 0.00 0.00 62 1017.3
20260507155331 32 288 0.0 3.2 0.00 0.00 0.00 66 1017.4
20260507154844 32 291 0.0 4.8 0.00 0.00 0.00 65 1017.3
20260507154322 32 300 0.0 3.2 0.00 0.00 0.00 64 1017.5
20260507153841 32 292 1.6 3.2 0.00 0.00 0.00 67 1017.5
20260507153335 32 113 0.0 4.8 0.00 0.00 0.00 68 1017.5
20260507152834 31 174 0.0 4.8 0.00 0.00 0.00 69 1017.5
20260507152408 31 52 0.0 4.8 0.00 0.00 0.00 70 1017.6
20260507151848 31 309 3.2 6.4 0.00 0.00 0.00 69 1017.5
20260507151322 31 316 1.6 6.4 0.00 0.00 0.00 69 1017.5
20260507150859 31 129 1.6 3.2 0.00 0.00 0.00 68 1017.6
20260507150336 31 81 0.0 4.8 0.00 0.00 0.00 70 1017.6
20260507145848 31 129 1.6 4.8 0.00 0.00 0.00 69 1017.6
20260507145341 31 285 1.6 4.8 0.00 0.00 0.00 69 1017.7
20260507144833 31 22 0.0 6.4 0.00 0.00 0.00 72 1017.6
20260507144343 31 127 1.6 6.4 0.00 0.00 0.00 71 1017.6
20260507143851 31 101 0.0 4.8 0.00 0.00 0.00 73 1017.5
20260507143349 30 359 1.6 6.4 0.00 0.00 0.00 72 1017.5
20260507142839 30 155 1.6 4.8 0.00 0.00 0.00 74 1017.6
20260507142332 30 292 1.6 3.2 0.00 0.00 0.00 73 1017.5
20260507141832 30 120 0.0 3.2 0.00 0.00 0.00 74 1017.5
20260507141339 30 313 0.0 6.4 0.00 0.00 0.00 74 1017.6
20260507140849 30 143 1.6 6.4 0.00 0.00 0.00 73 1017.6
20260507140332 30 197 1.6 6.4 0.00 0.00 0.00 74 1017.6
20260507135846 30 140 3.2 6.4 0.00 0.00 0.00 74 1017.6
20260507135336 30 157 1.6 6.4 0.00 0.00 0.00 75 1017.6
20260507134828 30 293 1.6 4.8 0.00 0.00 0.00 75 1017.6
20260507134325 30 311 0.0 4.8 0.00 0.00 0.00 76 1017.7
20260507133846 29 150 1.6 4.8 0.00 0.00 0.00 76 1017.7
20260507133338 29 295 0.0 4.8 0.00 0.00 0.00 77 1017.7